Presure
225 176 170 163 148 158 165 193 179 176 146 195 169 193 195 144 178 161 183 187 189 189 183 153 147 171 182 196 197 178 172 174 205 231 244 225 228 230 156 225 218 215 216 214
232 236 240 252 228 212 159 156 157 155 190 144 143 155 179 179 146 180 191 149 150 152 154 191 194 164 152 153 154 212 242 240 238 232 226 224 223 224 206 206 202 183 217 220
201 169 208 221 225 229 233 234 235 241 216 182 161 192 194 160 195 184 189 200 204 177 225 248 179 237 236 234 229 226 219 218 217 204 203 197 203 206 180 199 207 207 170 207
165 159 140 196 189 198 196 197 209 214 224 225 224 224 225 227 228 229 227 223 223 215 209 204 200 198 202 209 217 218 222 202 211 204 208 203 188 217 208 186 189 193 214 182
163 158 182 147 205 155 177 181 203 123 151 205 149 206 200 208 205 138 202 202 155 203 202 201 186 197 204 147 202 203 194 202 205 203 138 191 211 217 221 197 214 148 194 189
170 187 193 182 167 165 195 159 162 176 195 214 177 158 204 193 202 194 147 130 192 206 189 175 199 202 114 163 178 193 221 188 222 213 172 216 140 165 209 180 180 159 229 229
203 201 186 203 206 199 189 178 194 201 164 188 201 185 182 184 171 164 183 206 171 154 152 174 179 180 182 204 214 211 191 214 223 220 199 228 213 230 193 198 195 247 250 166
202 200 195 195 190 192 195 206 176 210 213 211 188 183 207 191 191 200 172 207 178 199 158 158 200 169 181 213 191 164 223 223 221 217 228 233 239 244 247 247 246 238 239 239
181 176 178 193 192 188 190 204 207 207 206 201 188 190 201 208 202 212 220 225 223 215 172 170 224 228 162 225 225 225 230 245 244 237 231 229 238 239 242 240 251 267 271 275
193 204 196 196 200 193 200 203 203 201 201 200 207 211 199 193 201 203 194 205 206 211 174 210 215 227 231 233 240 242 249 247 218 238 241 243 242 253 262 267 274 296 337 333
190 202 210 204 198 191 195 197 188 188 200 190 209 199 202 204 208 215 214 225 233 235 232 226 229 228 231 234 247 252 255 254 269 277 293 294 303 347 387 350 339 388 392 387
204 206 195 196 198 200 198 197 186 200 207 214 212 211 204 220 221 224 232 233 216 221 235 238 243 241 249 261 273 283 312 293 368 290 404 379 393 413 413 413 411 408 402 394
190 180 195 188 189 186 181 189 203 204 205 208 210 196 213 217 228 232 229 226 242 250 252 253 262 275 284 324 349 408 412 445 442 468 459 438 430 424 421 415 408 406 403 401
186 186 182 189 187 187 200 208 197 201 208 211 214 214 218 232 228 227 233 252 245 254 275 287 299 387 325 435 440 451 450 437 429 420 409 405 400 394 392 393 399 390 382 385
192 203 195 191 201 214 206 200 205 199 204 209 214 227 230 238 243 244 246 270 278 300 310 422 439 444 457 447 426 414 400 390 387 382 380 380 390 375 370 369 373 376 371 363
193 187 203 210 226 199 207 221 204 207 212 220 227 228 234 241 256 258 272 286 349 450 449 445 446 423 409 397 386 382 378 373 404 405 390 378 445 431 408 390 360 360 361 356
189 187 112 199 218 230 214 214 209 219 231 227 235 242 249 256 273 283 320 305 356 446 424 404 398 392 382 373 371 369 414 417 403 458 449 439 428 419 410 398 387 377 351 349
217 210 201 201 223 218 204 211 238 246 232 242 226 258 256 273 383 440 440 433 417 402 385 380 379 373 362 384 391 380 396 396 381 422 421 416 412 408 405 403 401 399 395 391
197 201 198 219 214 224 232 235 227 243 246 255 261 270 276 440 433 419 412 402 386 376 368 367 358 369 381 371 373 372 377 375 377 362 366 384 405 424 419 413 411 410 405 402
219 225 234 237 236 236 226 239 247 246 246 262 274 311 423 413 408 399 386 375 363 367 360 358 378 366 371 370 365 359 364 375 364 361 366 369 366 360 353 351 350 351 356 362
233 240 231 234 230 241 246 247 258 269 281 425 328 407 401 396 383 375 369 365 353 390 377 368 369 366 363 359 355 358 371 372 367 361 362 361 346 342 345 342 345 345 350 359
233 239 236 240 249 250 252 264 289 418 336 404 399 392 382 372 367 363 360 400 377 370 371 363 356 353 352 355 360 360 364 371 369 366 367 366 350 347 341 346 362 389 398 397
233 247 248 256 268 302 413 298 414 411 405 394 379 365 360 354 384 387 373 368 360 349 350 356 357 357 361 365 367 371 371 369 373 374 369 366 351 348 375 390 396 399 401 404
257 250 254 322 305 414 415 407 404 396 381 367 358 346 401 381 372 361 354 353 371 380 387 388 386 379 376 376 374 377 376 378 378 384 379 348 363 384 403 403 405 407 408 405
301 324 319 420 411 404 403 397 382 365 356 357 397 372 361 351 354 374 383 385 387 387 382 377 380 395 404 402 397 388 374 377 388 389 369 376 396 416 417 415 415 416 414 420
353 416 415 396 401 393 379 365 351 384 398 377 360 343 358 380 393 393 382 378 380 380 379 378 374 369 376 379 381 375 382 393 390 380 395 421 432 424 424 429 432 434 431 424
403 382 403 390 373 364 351 386 398 375 358 350 371 389 405 380 370 375 378 375 374 375 372 373 379 386 391 383 384 390 405 401 399 417 440 404 385 384 383 385 387 387 387 387
Wind_Speed
15 16 19 28 32 28 29 45 36 41 42 67 55 72 75 53 67 63 73 78 85 87 86 72 69 84 94 101 104 88 84 87 107 106 91 108 105 100 73 101 100 101 101 100
5 8 10 8 22 35 38 38 38 41 60 51 52 51 61 68 62 71 85 66 68 70 72 97 100 84 78 79 80 105 96 92 95 98 100 102 105 104 103 103 103 93 106 104
5 24 9 11 15 18 22 26 31 34 50 48 54 72 78 61 83 79 84 90 92 82 90 78 84 86 87 89 92 94 96 98 99 101 103 105 105 106 94 103 107 108 83 107
31 34 40 19 26 24 29 32 36 38 40 44 49 52 55 59 62 64 68 72 74 78 82 85 88 88 91 90 89 90 93 99 101 107 107 109 102 110 112 101 99 103 113 93
44 40 35 43 26 44 41 46 37 48 53 49 57 54 58 60 64 58 71 74 65 80 85 89 88 94 96 74 102 103 104 109 111 113 69 107 117 118 119 102 120 79 113 108
50 32 32 46 45 45 38 54 53 57 51 51 64 64 62 68 70 76 74 59 84 84 91 86 94 96 62 92 103 107 102 102 115 118 88 121 76 73 128 97 93 86 128 128
40 39 47 43 45 45 46 57 53 55 65 63 61 67 74 75 76 82 79 83 88 81 78 89 88 100 111 107 108 112 100 118 119 120 108 123 122 130 103 114 111 134 134 92
49 49 45 50 52 52 55 57 65 62 65 69 73 81 76 80 86 86 94 92 96 97 91 89 106 97 97 114 113 80 122 123 122 122 128 131 134 136 138 138 139 134 136 138
49 47 48 59 61 62 65 68 69 72 73 75 75 79 85 87 87 92 95 97 100 105 109 104 113 117 99 122 121 122 126 132 135 134 131 133 140 141 141 141 145 148 150 147
62 68 68 68 70 72 75 77 80 82 85 87 90 89 89 90 95 100 95 105 107 111 103 113 117 121 125 128 133 136 135 136 115 140 142 146 140 145 149 150 150 153 133 131
73 77 73 75 77 76 81 84 78 81 92 84 97 97 101 105 108 109 111 115 117 119 120 121 125 126 130 133 140 140 140 140 147 152 154 153 153 137 116 129 129 108 101 101
80 81 84 86 87 88 89 92 81 99 101 103 105 108 108 114 116 118 121 126 114 119 129 132 136 136 143 149 153 152 146 145 123 138 109 116 107 98 94 93 91 89 88 89
87 76 87 88 92 88 84 95 104 105 108 110 112 99 117 120 125 129 129 131 142 145 148 152 152 155 155 141 130 110 108 98 92 79 77 77 75 74 72 68 75 74 76 77
93 92 88 97 93 98 110 109 107 111 117 118 121 121 123 128 127 130 135 151 144 150 157 155 150 115 133 100 94 83 76 75 74 71 72 71 71 72 71 68 62 65 70 71
95 103 105 102 110 110 110 113 117 116 120 122 123 131 134 139 145 145 146 153 155 154 146 103 95 89 78 71 69 70 69 70 70 71 72 72 70 72 72 70 65 60 61 66
107 104 113 114 115 111 115 120 120 124 124 124 133 132 140 145 152 149 155 161 137 90 83 78 70 66 64 67 69 68 69 69 67 65 66 67 53 56 60 64 67 64 61 63
107 100 45 115 119 121 124 125 122 129 133 135 140 148 152 153 159 161 151 144 116 70 65 66 66 65 65 67 69 68 60 58 59 44 44 43 44 47 52 57 59 60 63 64
116 118 117 120 123 125 120 127 135 139 136 144 114 153 146 161 115 75 70 67 63 60 63 68 67 64 65 61 57 58 54 53 54 46 44 43 42 42 44 46 47 48 49 52
113 109 108 125 125 131 134 135 132 140 146 154 156 160 157 70 69 69 65 61 63 66 64 66 66 61 55 56 55 54 52 51 49 49 47 43 39 38 38 39 40 41 42 43
121 125 131 134 133 137 130 142 147 142 140 153 163 149 70 67 65 65 63 62 66 68 65 63 55 55 53 51 53 54 52 49 47 47 46 44 43 42 41 41 40 40 42 43
130 131 127 132 130 143 146 149 154 157 150 64 122 70 68 63 64 65 65 63 65 59 55 54 52 51 51 51 52 54 51 49 46 45 44 44 44 44 43 44 44 45 46 47
127 132 134 141 149 149 150 157 137 64 111 67 66 66 65 64 65 64 65 55 51 53 51 51 53 54 53 53 53 53 52 48 47 45 43 42 43 44 46 47 46 41 39 38
127 140 143 147 153 147 66 133 61 62 61 61 61 63 64 64 58 52 49 52 53 54 54 54 56 57 56 53 52 52 50 48 46 45 44 43 43 46 44 42 41 39 38 36
143 135 139 135 129 60 56 58 59 59 59 59 61 63 55 51 50 54 53 53 57 56 53 52 52 53 54 52 50 49 47 46 45 44 42 43 44 46 43 41 39 38 36 33
141 127 123 52 55 56 56 56 54 56 59 59 52 51 53 54 54 55 57 56 55 54 50 48 46 46 48 47 46 43 40 40 42 41 39 41 44 41 38 37 37 35 31 28
92 50 51 56 54 54 54 53 55 54 50 48 49 50 54 57 56 52 49 47 46 45 45 44 41 38 37 36 35 34 35 35 34 34 37 38 35 31 29 28 26 25 22 19
51 59 49 51 54 52 54 54 50 49 48 47 52 55 52 45 45 44 43 42 41 39 37 36 35 34 32 29 29 30 30 29 29 32 32 24 21 20 19 17 16 16 15 14
Wind_Direction
149 221 225 234 250 245 234 221 228 233 250 231 242 238 240 259 249 258 254 256 258 260 264 268 270 270 271 272 274 275 276 277 282 280 278 281 282 282 284 283 286 287 287 289
103 151 170 177 227 217 241 245 242 244 237 260 261 254 251 253 259 257 256 265 268 267 267 267 270 272 274 275 276 276 277 275 276 278 278 279 281 282 285 286 286 286 287 287
240 257 219 220 224 226 230 234 244 250 246 252 254 249 251 258 257 260 263 266 267 267 270 271 271 274 275 276 277 278 279 281 281 281 281 279 281 282 287 284 284 285 283 287
268 272 265 247 249 248 248 246 246 245 247 249 251 254 256 258 259 262 263 264 265 267 269 270 270 272 272 273 275 276 276 276 275 277 278 280 281 279 279 282 286 286 281 288
279 272 259 274 261 266 255 254 261 272 268 258 268 256 258 262 263 275 264 266 273 268 269 270 274 271 272 277 273 273 276 275 276 278 281 278 278 277 278 282 280 276 283 284
272 264 276 249 278 265 267 278 277 260 262 276 265 275 267 265 263 265 274 282 267 268 271 278 271 274 275 284 281 277 283 283 280 279 288 279 280 282 280 292 291 272 283 283
294 290 282 289 287 288 272 253 280 282 275 274 277 274 273 267 278 276 278 276 278 277 285 283 276 278 279 275 280 279 280 278 280 280 280 282 286 283 279 289 288 282 281 278
291 291 293 291 289 290 287 285 276 280 278 277 279 274 279 280 272 277 277 278 280 275 287 289 281 288 287 279 282 289 281 282 282 282 283 282 283 282 282 281 282 282 283 283
283 274 275 293 293 291 288 285 282 282 283 282 279 281 282 282 281 283 284 283 282 281 279 286 283 282 292 282 284 285 285 283 282 283 285 285 284 284 284 284 283 282 283 284
293 288 290 292 287 287 285 286 286 287 287 287 286 286 289 289 288 286 285 286 285 284 287 285 286 284 284 285 283 282 281 281 284 285 285 283 284 285 284 285 286 287 281 280
292 291 288 287 288 289 289 289 289 289 289 288 290 291 290 289 287 285 285 287 287 287 286 286 286 287 288 287 288 288 287 287 288 288 287 286 286 285 283 286 285 283 284 283
289 287 291 291 291 291 292 292 290 293 293 291 291 291 291 291 292 293 294 294 291 292 293 293 293 293 292 292 291 292 289 290 286 289 285 286 285 285 285 285 284 283 282 280
290 291 291 293 293 293 292 294 292 292 292 293 293 296 294 295 297 298 297 296 298 298 297 298 298 297 297 294 292 289 289 290 289 292 290 288 287 287 285 282 284 284 283 282
291 293 293 294 293 294 295 293 296 296 294 293 294 294 296 297 298 298 300 301 301 300 299 298 298 293 296 293 295 296 293 293 292 291 289 288 287 286 285 283 280 279 281 280
288 286 288 290 289 289 292 293 293 295 295 294 297 298 300 301 302 302 301 301 302 300 301 293 293 294 297 297 294 293 293 292 292 290 289 287 286 283 282 282 281 279 277 278
285 290 288 289 289 293 293 292 293 294 295 297 297 300 301 302 301 301 302 304 299 291 293 296 296 297 298 296 295 295 296 297 296 294 292 289 287 283 281 279 278 279 277 276
287 293 295 293 290 290 290 292 295 296 297 298 300 300 301 302 303 303 301 300 299 298 301 298 297 299 298 296 297 299 302 301 300 303 300 294 289 285 282 280 279 279 276 278
284 287 291 292 292 291 294 294 297 296 298 299 303 300 302 303 299 292 294 296 300 301 297 295 298 299 298 300 301 302 305 304 300 303 303 302 298 293 288 286 286 285 284 284
289 291 292 290 292 293 294 296 296 299 299 300 301 302 303 294 294 298 299 303 302 297 296 299 299 300 301 301 302 303 305 304 304 303 304 305 303 297 294 293 292 290 289 288
286 289 289 292 293 295 292 297 296 297 299 299 300 300 297 299 300 301 302 302 299 297 299 299 300 300 301 302 302 303 306 306 302 301 301 301 300 299 298 297 295 293 292 289
289 292 291 292 293 296 296 296 295 297 298 297 298 299 301 302 301 301 300 299 297 300 301 301 301 300 301 301 303 303 304 303 302 301 302 300 299 298 298 297 296 294 293 290
290 293 294 294 293 293 294 294 298 298 298 298 299 300 301 301 300 299 299 302 301 299 300 301 300 300 301 301 302 302 304 303 301 301 301 299 296 296 296 294 292 294 294 292
291 292 292 293 293 295 297 296 296 298 299 299 300 299 299 299 301 301 299 300 300 299 301 302 299 299 299 299 299 299 300 301 301 300 299 298 296 295 298 298 297 295 295 296
291 292 292 294 295 298 299 298 300 300 300 299 297 297 305 303 304 303 302 300 301 300 299 296 295 294 295 296 297 298 300 301 301 300 299 297 298 302 302 300 301 300 300 298
292 292 293 299 298 298 299 300 301 299 298 300 305 304 305 305 305 304 303 302 301 300 301 302 303 299 295 293 294 297 300 301 300 301 300 302 305 303 303 302 301 299 298 294
294 300 300 298 298 300 300 298 297 303 305 305 305 301 305 304 304 304 303 303 303 302 303 304 306 306 304 302 299 297 298 298 299 302 305 306 305 308 308 306 303 299 294 290
299 297 298 298 301 301 299 309 308 308 307 305 308 305 305 306 306 306 305 305 305 305 305 305 303 301 300 297 297 297 296 299 305 306 304 312 319 320 321 321 318 315 310 304